Wind_Speed
12 12 11 10 10 10 9 8 7 5 4 4 4 4 4 5 5 6 7 9 10 10 11 11 11 11 11 11 11 10 10 9 7 7 6 5 5 5 6 6 8 9 10
13 12 12 11 11 10 9 8 6 5 4 3 3 3 4 5 5 6 7 9 9 10 10 11 11 11 11 11 11 11 10 10 8 7 6 6 5 5 5 6 7 8 10
13 12 12 11 11 10 9 8 6 5 4 3 2 3 3 4 5 6 7 8 9 10 10 11 10 10 11 12 12 11 11 10 9 8 7 6 6 5 5 5 6 8 9
12 13 12 11 10 10 9 8 6 5 3 3 3 3 3 4 5 6 7 8 9 10 10 11 11 11 12 12 12 12 11 10 9 9 8 7 6 5 5 5 5 7 9
13 12 12 12 11 10 9 8 6 5 4 3 4 3 4 4 5 6 7 8 9 9 10 11 11 12 12 12 13 12 12 11 10 9 8 7 6 5 4 4 4 5 7
13 13 13 13 12 11 9 8 7 5 4 4 4 3 3 4 5 6 7 8 8 9 10 11 11 12 12 12 13 13 12 12 11 10 9 8 7 6 5 3 3 4 6
13 13 13 13 12 11 9 8 7 6 5 5 4 3 3 4 5 6 7 7 8 8 10 10 11 11 12 12 12 13 12 12 12 11 10 10 8 6 5 4 3 3 4
14 13 14 13 12 11 10 9 7 6 6 6 5 4 4 5 5 6 7 7 7 8 9 10 11 11 12 12 12 13 12 12 12 11 11 10 9 8 6 5 4 4 4
14 14 13 13 12 12 10 10 8 8 7 6 5 5 5 5 6 6 6 6 7 8 9 10 10 11 12 12 12 12 12 12 12 11 11 11 9 8 7 6 6 5 5
14 14 13 13 13 12 11 10 9 8 7 7 6 5 5 6 6 6 6 7 7 8 9 10 10 11 11 12 12 12 12 12 12 12 12 11 10 9 8 7 6 6 5
14 14 14 13 12 12 11 10 9 8 7 7 6 6 6 6 6 6 6 7 8 8 9 9 10 11 11 11 11 11 12 12 12 11 12 12 11 10 9 8 7 7 7
15 15 15 14 13 12 11 10 10 9 8 8 7 7 7 7 7 7 7 8 8 8 9 9 9 10 11 11 11 12 12 12 12 12 12 12 12 11 11 10 10 9 9
14 15 14 14 13 12 11 11 10 9 9 8 8 8 8 8 8 8 8 8 9 9 9 9 10 10 11 11 11 12 12 13 13 12 13 13 13 13 12 12 11 11 11
14 14 13 14 13 13 12 11 10 10 10 9 9 9 9 8 8 8 9 9 9 10 10 10 11 11 11 12 12 13 13 14 14 14 14 14 14 14 14 14 14 13 13
14 14 14 13 13 12 12 11 11 10 10 10 10 10 9 9 9 10 10 10 11 11 11 12 12 12 13 13 14 14 14 15 16 16 16 16 16 16 16 16 16 16 16
13 14 14 13 13 12 12 12 11 11 11 11 11 11 11 11 11 11 12 12 13 13 14 14 14 15 15 15 16 16 17 17 18 18 18 18 18 18 18 18 19 19 19
14 14 13 13 13 13 13 12 11 11 12 12 13 13 12 12 13 13 14 14 15 15 16 16 17 17 18 18 19 19 20 20 21 21 21 21 21 21 21 22 22 22 22
15 14 14 14 14 13 13 13 13 13 13 14 14 14 14 15 15 16 16 16 17 18 18 19 19 20 21 22 22 22 23 23 23 23 23 24 24 24 24 25 25 26 26
16 15 16 16 15 14 14 15 15 15 15 15 15 16 16 16 17 18 18 19 20 21 21 22 22 23 24 25 25 25 25 26 26 26 27 27 27 27 28 28 28 29 29
16 17 17 17 16 16 17 17 17 16 16 16 17 17 18 18 19 20 20 21 22 23 24 24 25 26 27 28 28 28 28 28 28 29 30 30 30 31 31 32 32 33 33
16 17 17 17 18 18 18 18 18 18 18 19 19 20 21 21 21 22 23 24 25 26 27 27 28 29 29 30 30 30 31 31 31 32 32 33 34 35 35 36 36 37 37
17 18 19 19 19 19 19 20 20 21 21 22 22 23 23 24 24 25 26 27 28 29 29 30 31 32 32 32 32 33 34 34 35 35 36 37 37 38 39 40 41 41 41
19 19 20 20 20 21 22 22 22 23 23 24 24 25 25 26 27 28 29 30 30 31 32 33 34 34 34 35 35 36 37 37 38 38 39 40 41 41 42 43 44 44 44
20 21 21 22 23 23 24 24 25 25 26 27 27 28 28 29 30 31 32 33 34 34 35 36 36 37 37 38 38 39 40 41 41 42 42 43 44 45 45 46 46 46 46
22 23 23 24 25 25 26 27 27 28 28 29 30 30 31 32 33 34 35 36 37 37 38 38 39 39 40 40 41 42 43 44 44 44 45 46 47 47 47 48 48 48 49
25 25 26 26 27 28 28 29 30 30 31 32 32 33 34 35 36 37 38 38 39 40 41 41 42 42 43 44 45 45 46 47 47 47 47 49 50 50 50 50 51 51 51
Wind_Direction
202 201 203 206 209 212 218 221 226 233 244 256 267 288 311 323 329 333 339 344 346 347 349 351 352 353 354 354 354 354 352 347 342 339 332 325 311 290 275 255 241 236 233
204 204 209 210 209 211 215 217 220 228 242 252 269 297 316 327 333 337 341 344 347 350 353 355 355 356 357 358 358 357 357 354 347 341 336 327 320 303 275 257 247 238 232
205 204 206 209 208 207 212 216 219 224 237 252 274 301 318 332 338 341 343 347 350 353 357 1 1 360 0 1 0 0 359 357 354 347 341 332 321 312 286 263 251 241 233
207 205 203 204 203 202 207 211 216 221 234 253 270 293 314 329 338 342 345 350 354 357 359 1 2 2 2 2 3 4 2 360 359 356 350 342 331 323 308 280 259 245 236
208 207 204 202 203 205 207 210 218 222 234 250 267 288 309 323 331 338 342 348 353 356 359 1 3 4 4 4 5 6 5 3 3 2 359 355 348 338 332 307 268 251 241
209 207 205 203 204 206 209 214 218 225 237 250 261 281 306 320 326 332 339 346 351 353 354 358 1 4 5 6 7 8 8 7 6 7 5 4 1 353 348 335 288 261 250
210 208 208 205 207 209 213 218 217 225 240 252 261 274 301 316 327 332 337 342 346 349 353 356 358 1 4 6 7 7 7 6 7 7 5 4 4 0 356 355 332 292 266
211 210 208 208 210 212 217 219 221 231 243 251 262 272 291 304 318 328 330 334 340 344 348 351 355 359 2 4 6 6 5 5 5 3 3 3 3 2 355 351 337 313 282
207 206 206 210 212 216 220 220 225 232 239 248 259 268 284 304 316 321 322 326 331 338 344 347 350 353 355 357 360 4 5 5 3 2 2 1 1 360 355 351 341 322 300
208 206 208 211 211 217 220 221 226 230 235 245 252 265 283 300 312 317 318 324 329 335 340 343 345 347 350 355 358 0 2 1 0 1 1 2 1 357 354 349 341 330 314
210 208 209 209 210 215 221 225 228 231 237 245 255 265 277 291 301 307 314 320 326 332 335 338 340 343 346 350 352 353 355 355 354 355 356 358 356 352 349 344 334 324 313
211 210 210 210 212 218 222 225 229 232 236 244 252 263 276 287 293 300 306 312 318 323 328 330 333 337 340 342 344 345 346 347 348 347 347 347 347 344 340 335 328 319 311
208 210 211 214 219 222 223 225 229 233 238 245 252 262 273 280 287 295 301 305 311 316 321 325 327 330 333 335 336 336 338 340 340 340 340 339 338 337 334 330 324 318 311
210 212 216 220 222 224 224 227 230 235 241 247 253 261 267 274 281 290 298 301 305 309 314 317 320 323 324 326 328 329 329 329 330 331 331 331 331 329 327 325 321 315 310
215 216 221 222 221 223 227 230 234 239 244 250 255 259 265 271 277 284 290 295 300 303 305 308 311 315 317 317 319 320 320 320 321 321 321 321 322 321 319 317 316 313 308
219 221 224 223 223 227 231 236 240 244 249 253 257 261 267 272 278 284 289 292 295 297 300 303 304 307 309 310 310 310 311 313 313 312 312 313 313 313 311 309 308 306 303
221 224 226 229 230 233 238 242 246 250 254 258 262 264 269 275 279 284 288 291 294 295 296 297 298 301 303 304 304 303 303 305 306 306 305 305 306 306 306 304 302 301 299
225 228 233 237 236 238 242 248 251 255 259 263 266 269 272 276 280 284 287 290 292 294 294 295 295 298 300 301 301 301 300 300 300 300 300 300 300 301 301 301 300 300 298
230 234 238 242 242 243 247 251 255 259 262 266 270 274 277 280 282 284 286 288 290 292 293 294 294 295 297 299 299 299 298 298 298 297 297 297 298 298 298 298 298 297 297
235 238 241 245 247 249 252 254 258 262 266 269 273 276 279 281 283 285 287 288 289 291 291 292 293 295 295 296 297 297 297 296 296 296 295 296 296 296 296 296 296 295 294
239 243 246 250 251 253 255 258 260 263 267 271 274 277 280 282 283 285 287 289 290 291 291 292 293 294 295 296 297 296 296 295 294 294 294 294 294 295 295 295 295 294 293
246 248 252 252 254 256 258 260 263 265 268 272 275 277 280 282 284 286 288 289 290 290 291 292 293 293 294 295 296 296 296 295 294 293 293 294 294 294 294 294 294 294 293
250 253 255 255 257 259 260 263 265 267 270 273 275 278 280 283 285 287 289 290 290 291 291 292 292 293 293 294 294 295 296 295 295 294 293 293 293 294 294 295 294 294 293
252 255 257 258 260 261 262 264 267 270 272 274 276 278 281 283 286 288 289 290 291 291 292 292 292 293 293 293 294 295 295 295 295 295 294 293 294 294 295 295 294 293 293
256 258 260 261 262 263 265 267 269 271 273 275 276 278 281 284 286 288 289 290 290 291 292 292 293 294 294 294 294 294 295 295 295 295 295 295 295 295 295 295 294 294 293
258 259 261 263 264 266 268 269 271 272 273 275 277 279 281 284 285 287 288 289 290 291 292 293 294 294 294 295 295 295 295 295 295 295 295 296 296 295 295 295 294 293 293
Height
5855 5857 5859 5860 5862 5863 5864 5865 5866 5867 5867 5867 5867 5867 5867 5866 5865 5864 5862 5861 5859 5857 5855 5853 5851 5848 5846 5844 5842 5840 5838 5837 5836 5835 5834 5834 5833 5833 5833 5834 5835 5836 5838
5854 5855 5857 5859 5860 5862 5863 5864 5865 5865 5866 5866 5866 5866 5866 5865 5864 5863 5862 5860 5859 5857 5855 5852 5850 5848 5846 5844 5842 5840 5838 5836 5835 5834 5833 5833 5833 5832 5832 5832 5833 5834 5835
5852 5854 5856 5858 5859 5860 5862 5863 5864 5864 5865 5865 5866 5866 5865 5864 5864 5863 5861 5860 5858 5856 5854 5852 5850 5848 5846 5844 5842 5839 5838 5836 5834 5833 5833 5832 5831 5831 5831 5831 5831 5832 5833
5850 5852 5854 5856 5858 5859 5860 5862 5863 5863 5864 5865 5865 5865 5864 5864 5863 5862 5861 5859 5858 5856 5854 5852 5850 5849 5846 5844 5842 5839 5837 5836 5834 5833 5832 5831 5830 5829 5829 5829 5830 5830 5831
5848 5850 5853 5855 5856 5858 5859 5861 5862 5863 5863 5864 5864 5864 5863 5863 5862 5861 5860 5859 5858 5856 5854 5852 5850 5849 5847 5844 5842 5840 5838 5836 5834 5832 5831 5830 5829 5828 5828 5828 5829 5829 5830
5847 5849 5851 5853 5855 5856 5858 5859 5860 5861 5862 5863 5863 5863 5862 5862 5861 5861 5860 5859 5857 5856 5854 5852 5851 5849 5847 5845 5842 5840 5838 5836 5834 5833 5831 5830 5829 5828 5828 5827 5827 5828 5828
5845 5847 5849 5851 5853 5855 5857 5858 5859 5860 5861 5861 5861 5861 5861 5861 5861 5860 5859 5858 5857 5856 5854 5852 5851 5849 5847 5845 5843 5840 5838 5836 5835 5833 5831 5830 5829 5828 5827 5827 5827 5827 5827
5843 5845 5847 5849 5851 5853 5855 5856 5858 5859 5860 5860 5860 5860 5860 5860 5860 5859 5858 5857 5856 5855 5854 5852 5851 5849 5847 5845 5843 5841 5839 5837 5835 5833 5832 5830 5829 5828 5827 5827 5826 5826 5827
5842 5844 5846 5847 5850 5852 5853 5855 5856 5857 5858 5858 5859 5859 5859 5859 5858 5858 5857 5856 5856 5854 5853 5852 5850 5849 5847 5845 5843 5841 5839 5837 5835 5833 5832 5830 5829 5828 5827 5826 5826 5826 5826
5840 5842 5844 5846 5848 5850 5852 5853 5854 5855 5856 5857 5857 5857 5858 5857 5857 5857 5856 5855 5855 5854 5852 5851 5850 5848 5846 5845 5843 5841 5839 5837 5836 5834 5832 5831 5829 5828 5827 5826 5825 5825 5825
5838 5840 5842 5844 5846 5848 5850 5851 5852 5853 5854 5855 5855 5856 5856 5856 5856 5855 5855 5854 5853 5852 5851 5850 5849 5847 5846 5844 5842 5841 5839 5837 5836 5834 5832 5831 5829 5828 5827 5826 5825 5824 5824
5835 5838 5840 5842 5844 5846 5848 5849 5850 5851 5852 5853 5854 5854 5854 5854 5854 5853 5853 5852 5852 5851 5850 5849 5848 5846 5845 5843 5842 5840 5839 5837 5835 5833 5832 5830 5829 5827 5826 5825 5824 5823 5823
5833 5835 5838 5840 5842 5844 5845 5847 5848 5849 5850 5851 5851 5852 5852 5852 5852 5851 5851 5850 5850 5849 5848 5847 5846 5845 5844 5842 5841 5839 5838 5836 5834 5833 5831 5829 5828 5826 5825 5823 5822 5821 5821
5831 5834 5836 5838 5840 5841 5843 5844 5845 5846 5847 5848 5849 5849 5850 5850 5849 5849 5849 5848 5848 5847 5846 5845 5844 5843 5842 5840 5839 5837 5836 5834 5833 5831 5829 5828 5826 5824 5823 5822 5820 5819 5818
5829 5831 5833 5835 5837 5839 5840 5842 5843 5844 5845 5846 5846 5847 5847 5847 5847 5847 5846 5846 5845 5844 5844 5843 5842 5841 5839 5838 5836 5835 5834 5832 5830 5829 5827 5825 5824 5822 5820 5819 5817 5816 5815
5827 5829 5831 5832 5834 5836 5838 5839 5840 5841 5842 5842 5843 5843 5844 5844 5844 5843 5843 5842 5842 5841 5840 5839 5838 5837 5836 5834 5833 5832 5830 5829 5827 5825 5824 5822 5820 5819 5817 5815 5814 5812 5811
5825 5826 5828 5830 5831 5833 5834 5836 5837 5837 5838 5839 5840 5840 5840 5840 5840 5840 5839 5839 5838 5837 5836 5835 5834 5833 5832 5830 5829 5827 5826 5824 5822 5821 5819 5817 5816 5814 5812 5810 5809 5807 5806
5822 5823 5825 5827 5828 5829 5831 5832 5833 5834 5834 5835 5835 5835 5835 5835 5835 5835 5835 5834 5833 5832 5831 5830 5829 5828 5826 5825 5823 5822 5820 5819 5817 5815 5813 5812 5810 5808 5806 5805 5803 5801 5799
5818 5820 5822 5823 5824 5825 5827 5828 5829 5829 5830 5830 5831 5831 5830 5831 5830 5830 5829 5829 5828 5827 5826 5825 5823 5822 5820 5818 5817 5815 5813 5812 5810 5808 5807 5805 5803 5801 5799 5798 5796 5794 5791
5815 5816 5818 5819 5820 5821 5822 5823 5824 5825 5825 5825 5826 5826 5825 5825 5825 5824 5823 5823 5822 5820 5819 5818 5816 5815 5813 5811 5809 5807 5806 5804 5802 5800 5798 5797 5795 5793 5791 5789 5787 5785 5782
5811 5812 5814 5815 5816 5817 5818 5818 5819 5819 5820 5820 5820 5820 5820 5819 5818 5818 5817 5816 5815 5813 5812 5810 5809 5807 5805 5803 5800 5798 5797 5795 5793 5791 5789 5787 5785 5783 5780 5778 5776 5773 5771
5806 5807 5809 5810 5811 5811 5812 5813 5813 5814 5814 5814 5814 5814 5813 5813 5812 5811 5810 5808 5807 5805 5804 5802 5800 5798 5795 5793 5791 5789 5786 5784 5783 5781 5779 5776 5774 5771 5769 5766 5763 5760 5758
5801 5802 5803 5804 5805 5805 5806 5807 5807 5807 5807 5807 5807 5807 5806 5805 5804 5803 5802 5800 5798 5796 5794 5792 5790 5788 5786 5783 5781 5778 5776 5773 5771 5769 5767 5764 5762 5759 5756 5753 5749 5746 5743
5795 5796 5797 5798 5798 5799 5799 5800 5800 5800 5800 5800 5800 5799 5798 5797 5796 5795 5793 5791 5789 5787 5785 5782 5780 5778 5775 5773 5770 5767 5765 5762 5759 5756 5754 5751 5748 5745 5742 5739 5735 5731 5728
5789 5790 5790 5791 5791 5792 5792 5792 5792 5792 5792 5792 5791 5791 5790 5788 5787 5785 5783 5781 5779 5776 5774 5771 5769 5766 5764 5761 5758 5755 5752 5749 5746 5743 5740 5737 5734 5731 5728 5724 5720 5717 5713
5782 5782 5783 5783 5784 5784 5784 5784 5784 5784 5783 5783 5782 5781 5780 5778 5777 5775 5773 5770 5768 5765 5762 5760 5757 5754 5751 5748 5745 5742 5738 5735 5732 5729 5726 5723 5719 5716 5712 5709 5705 5701 5697